CAPE
388 666 540 834 823 1342 1241 1556 1825 1888 2086 2510 2542 2412 2070 2365 2566 2751 2955 3736 3952 4219 4233 4252 4078 3908 3728 3520 3684 3863 4014 3988 3962 3870 3586 3458 3094 3491 3518 3067 2802 2880 2700 2540 2544 2359 2277 2170 1816 1488 1116 975 964 919 1184 760 1025 716 762 672 417 649 230
226 573 802 823 940 912 1306 1522 1671 2330 2266 2533 2659 2689 2325 2363 2721 2845 3010 3699 3947 4182 4264 4354 4173 3916 3649 3487 3565 3908 3991 3985 3977 3815 3665 3888 3683 3613 3355 3082 2822 3028 2966 2591 2772 2583 2007 1786 1553 1229 1306 1202 976 1145 926 1199 926 688 529 637 603 532 625
208 1079 1300 1324 1339 1337 1366 1256 2029 1744 1827 2075 2270 2389 2352 2466 2746 2915 3186 3736 4032 4248 4317 4299 4160 3910 3685 3686 3546 3838 3989 3966 4046 3937 3624 3698 3354 2661 2967 3190 2972 2965 2700 2828 2397 2218 1825 1582 1423 1262 1060 924 760 1164 992 1024 882 710 763 706 530 751 493
524 1420 1079 808 923 1250 1430 1428 2020 2312 2175 2196 1809 1798 2218 2606 2730 2868 3279 3568 3931 4197 4293 4185 4098 3862 3815 3878 3721 3826 3902 3956 4039 3688 3308 3154 3251 3040 3067 3214 2890 2528 2548 2015 2015 1689 1322 1474 1168 1400 1498 1089 1080 894 876 785 594 646 604 899 807 573 632
1136 748 451 644 792 1426 1766 1778 1824 2160 2008 1814 1648 1553 2280 2696 2733 2650 3270 3257 3357 3736 3968 3921 3501 3531 3718 3863 3697 3755 3776 3889 3963 3621 3395 3133 3343 3113 2905 2466 2600 2012 2224 1875 1818 1772 1677 1600 1077 1313 1240 1391 1089 908 799 830 629 700 582 744 1002 676 790
651 368 733 868 951 1364 1634 1353 1088 1166 1331 1952 1902 2096 2182 2280 2200 1868 2317 2872 3051 3275 3795 3799 3720 3681 3663 3645 3556 3624 3713 3845 3951 3801 3437 3401 3321 3104 2751 2457 2325 1916 1994 1698 1883 1828 1754 1327 1396 1176 1213 1130 634 742 673 625 525 643 734 619 643 583 422
420 542 670 608 604 875 1667 1670 1264 979 1171 1961 2170 1873 1861 1950 1945 1798 1784 2174 2452 2981 3266 3526 3460 3395 3681 3452 3688 3779 3752 3729 3883 3791 3504 3416 3360 2953 2687 2411 2293 1900 1695 1760 1708 1788 1627 1450 1519 1381 1245 786 748 632 560 572 484 578 758 703 737 750 606
1119 1120 1146 1072 725 557 1023 1608 1509 1193 1217 2290 2170 2055 1892 1765 1778 1825 1810 1844 1972 2481 2796 3367 3508 3665 3816 3712 3828 3756 3740 3477 3814 3773 3577 3327 3281 2812 2564 2401 2391 2224 1856 1785 2011 1818 1687 1718 1520 1450 1247 849 916 878 748 753 822 529 763 862 828 586 554
370 847 1073 534 168 191 770 1350 1404 1573 2020 2395 2427 2475 2031 1849 1902 1895 1780 1721 2052 2524 2900 2767 3157 3205 3945 3874 3850 3880 3766 3505 3662 3677 3508 3163 2973 2508 2338 2581 2442 2091 1895 1570 1986 1919 1884 1877 1429 1415 1283 1010 991 1038 971 1078 948 540 529 740 848 696 408
2485 317 353 221 139 398 1384 2089 2435 2319 1866 2254 2505 2678 2579 2482 2467 1970 1832 1713 2004 2482 2974 3015 2885 3239 3888 3862 3849 3820 3773 3650 3553 3254 3027 2792 2663 2188 2067 2132 2021 2000 2103 2002 2029 2151 2330 2332 1421 1446 1365 1200 1275 1166 1004 1206 1046 765 730 769 816 729 713
1866 1588 1474 1278 1375 1619 1933 1869 2632 2562 2443 2866 2661 2499 2606 2458 2367 1964 1812 1697 1953 2042 2272 2433 2672 2732 3377 3354 3316 3268 3722 3536 3442 3339 3080 2644 2392 2138 1770 1733 1584 1763 2572 2662 2343 2667 2872 2618 1606 1552 1451 1321 1556 1364 1204 1271 1148 1040 746 755 684 715 612
2095 1841 1668 1441 1713 1710 1274 1907 2151 2390 2466 2630 2890 2548 2586 2548 2489 2112 2100 2215 2087 1996 1996 2410 2638 2581 3017 2986 2910 3296 3504 3470 3148 2997 3102 2818 2622 2235 1974 1773 1698 1896 2167 2386 2620 2911 3002 2488 1764 1787 1598 1331 1339 1239 1227 1249 1214 1040 724 498 392 351 292
1707 2008 1536 1612 2074 2357 2073 2347 2340 2358 2431 2242 2498 2710 2726 2658 2444 2494 2663 2530 2271 1968 2034 2730 2729 3216 2750 2771 2774 3293 3282 3366 3286 3330 3310 3207 2987 2765 2317 1863 1719 1834 2320 2336 2552 2577 3134 2460 2062 1766 1405 1239 1068 1012 1098 1268 1191 1094 909 542 287 244 254
2469 2508 2498 2480 2512 2597 2667 2700 2585 2289 2481 2793 2980 2769 2855 2890 2724 2535 2278 2165 2239 1985 1937 2216 2759 2446 2343 2821 3011 3465 3468 3376 3543 3524 3421 3262 3132 2804 2414 2234 2278 2394 2620 2321 2212 2517 2880 2599 2159 1829 1563 1304 1249 1082 1212 1443 1250 1219 986 486 249 293 351
1472 1441 2350 2582 3310 2707 2518 2652 2680 2665 2755 3332 3143 2700 2648 2656 2492 2266 2338 2053 2025 2008 1962 2099 2183 2346 2518 2955 3285 3672 3762 3792 3914 3877 3738 3233 2884 2897 2758 2608 2866 3224 2960 2507 2279 2664 2602 2458 2361 2029 1773 1736 1680 1547 1571 1310 991 980 738 385 256 280 345
80 285 1212 3289 4002 4911 4862 4222 4147 4378 4502 4207 3265 2669 2257 2333 2327 2142 2222 2098 1971 1820 1831 2061 2140 2186 2230 2553 3029 3706 4132 4293 4340 4260 4050 3608 3172 3100 3169 2845 2913 3196 3046 2671 2461 2375 2300 2079 1886 1765 1660 1919 1792 1555 1541 1256 994 717 360 164 222 283 349
38 59 6 1949 3826 3699 4676 5294 5814 6693 6039 4755 3402 2663 1893 2231 2354 2424 1757 1639 1618 1665 1573 2206 2266 2110 1973 2096 2559 3660 4442 4662 4738 4614 4338 4018 3632 3308 3270 3322 3347 3138 2930 2708 2670 2470 2034 1674 1510 942 998 1530 1183 1127 997 994 547 18 0 0 52 240 395
29 291 376 2572 2857 3045 4770 5162 5242 5670 6186 5393 4144 2893 2152 2200 2376 2433 1729 1602 1468 1210 1385 2435 2587 2513 2271 2451 3096 4368 4694 4762 4881 4764 4670 4428 4127 3819 3644 3587 3466 3244 3032 3175 3202 2559 1931 1539 1090 719 744 1019 711 833 886 739 421 211 0 0 0 152 505
54 42 1886 1088 1994 3940 4131 4088 4459 5043 5168 4753 4176 3327 2576 2267 2442 2419 2022 1747 1575 1535 1316 2804 2844 2583 2512 2472 3275 4826 4929 4948 5082 4930 4767 4658 4429 4302 4208 3857 3687 3696 3701 3387 2980 2356 1914 1195 1223 1321 1472 1549 1376 1101 983 900 504 220 0 0 0 8 404
186 108 156 1008 1075 2114 3489 4053 3566 4091 4689 4466 4433 3695 3064 2406 2393 2581 2406 2192 2057 1955 1684 2758 2964 2938 2658 2657 3254 3977 4706 4878 5227 5128 4985 4776 4843 4783 4314 3848 3592 3338 3197 2977 2722 2573 2178 1540 1550 1686 1867 1901 1621 1402 1305 998 591 252 0 0 0 0 121
500 377 674 769 3040 2474 4005 5179 4977 4665 4628 3960 3543 3692 3600 3201 2836 2969 2885 2732 2634 2435 2361 2470 3680 3566 3334 3229 3917 5094 6050 5442 5810 5327 5168 5249 4842 4367 4146 3840 3655 3391 3151 2503 2442 2499 2432 2152 2154 2022 2114 2021 1902 1682 1376 874 480 90 0 0 0 0 21
151 327 343 183 2021 2503 4844 5002 5060 4391 5113 4286 4695 4334 3840 3357 2691 2463 2416 2339 3079 3140 3018 3199 4955 5531 4464 4051 5989 6418 5964 5852 5785 5206 4826 4516 4378 4264 4046 3764 3552 3284 3210 2917 2615 2481 2462 2466 2375 2328 2241 2125 1931 1653 1228 760 404 93 0 0 0 0 166
0 0 0 238 994 3447 5495 4580 5190 4189 5730 5770 4792 4717 4277 3858 3616 3250 3014 2722 3053 4353 4226 4253 5357 5587 5924 6752 5967 5738 5466 5282 5074 4740 4524 4365 4140 4078 3946 3756 3629 3568 3488 3119 2833 2689 2622 2532 2443 2370 2283 2186 1866 1482 1082 793 539 174 0 0 0 0 512
0 10 24 30 150 2607 4755 4834 5093 4692 5248 5698 5227 4509 4697 4267 4469 4351 4289 3944 4388 4758 4785 5259 7069 6216 6129 5990 5496 5249 5086 4990 4792 4625 4509 4308 4223 3935 3792 3807 3887 3900 3365 3188 2947 2781 2619 2468 2420 2282 2111 1910 1698 1407 1138 900 626 395 202 0 0 88 655
0 0 0 40 139 1761 3780 4209 3821 3490 4074 4423 4710 4784 5168 5054 4872 5019 4965 4639 4863 5305 5301 6058 6355 5894 5792 5616 5456 5321 4997 4548 4434 4331 4240 4132 4032 3917 3900 3787 3703 3533 3364 3150 2927 2753 2582 2416 2260 2019 1857 1614 1471 1250 1151 925 669 489 351 14 0 25 653
131 0 43 103 9 43 2655 4921 4802 3685 3589 4154 4934 5487 5693 5435 5587 5622 5440 5168 5399 5237 5419 5856 5970 5580 5484 5243 4891 4840 4581 4477 4434 4317 4208 3967 3970 3832 3793 3618 3520 3431 3148 2698 2525 2492 2389 2177 1453 1414 1114 1058 1334 1280 839 863 781 470 407 318 0 1 803
894 318 159 5 106 244 5105 5295 4857 4481 2989 3640 5385 5390 5715 6065 6116 5995 5590 5786 5761 5373 5113 5869 5776 5420 5073 4651 4630 4396 4191 4043 4066 4066 3947 3918 3921 3561 3253 2977 2998 2780 2708 2402 2085 2172 2059 1854 1246 1004 870 805 728 725 984 961 1266 798 570 392 0 0 130
990 591 543 501 1871 2654 4973 4107 4786 4724 4118 5460 6148 5700 5994 6312 6107 6220 6202 6135 6064 5930 5660 6023 5676 5396 5043 4748 4611 4364 4287 4142 3916 3810 3782 3497 3297 3340 2908 2526 2494 2164 1959 1835 1658 1906 1919 1727 1200 1049 1211 1186 1085 1348 1285 971 701 543 486 174 0 0 0
1204 719 753 919 2844 3723 4034 4043 3936 3804 4235 5004 5060 5221 6108 6091 6323 6480 6347 6370 5789 5266 5200 4968 4939 4684 4417 4249 4135 4106 4077 3936 3862 3582 3526 3203 3082 3071 2604 2512 2264 1999 1740 1994 1895 2050 1702 1784 1690 1451 1405 1595 1504 1232 1269 1366 828 530 0 0 0 0 0
890 677 427 436 591 3456 3958 4301 4498 4694 4576 4322 4883 5251 5538 5828 6137 5976 5856 5626 5483 4738 4449 4440 4716 4357 3982 3312 3344 3250 3256 3561 3425 3185 2884 2858 2784 2647 2558 2515 2531 2461 2269 2069 2034 2043 1909 1754 1517 1296 1141 679 810 805 1163 1676 1422 153 0 0 0 0 0
2130 1611 1540 1585 1198 2241 2974 4638 4832 4772 4791 4720 4961 5602 5897 6026 5668 5115 5158 5258 4540 4460 4378 4238 3914 3777 3569 3425 3243 3337 3489 3350 3153 2996 2622 2648 2757 2625 2357 2323 2489 2521 2446 1766 1782 1698 1763 1424 1102 946 1030 1017 917 828 1244 1376 1102 313 0 0 0 0 0
2319 2075 2069 1821 1717 1846 1857 3410 4058 4114 4611 4971 5483 5675 5414 5052 4885 4749 5140 4870 4306 4350 4228 3952 3767 3522 3373 3256 3320 3404 3329 3165 3057 2956 2814 2683 2546 2455 2425 2282 2026 2084 2011 1296 1110 1376 1380 1416 740 781 686 794 624 653 988 1561 837 160 0 0 0 0 0
1845 1969 2619 2377 2260 2734 2803 3141 3090 2934 3361 3935 4163 4122 4313 4168 4855 4795 4543 4085 3749 3650 3667 3294 3088 2881 3007 3036 2899 2889 2882 2794 2518 2481 2410 2262 2059 1931 1921 1823 1406 1413 1148 841 664 912 1112 802 758 664 474 608 553 559 989 1529 1190 604 376 0 0 0 0
1280 1604 1660 2194 2486 2536 2393 2486 2553 2283 2457 2952 3018 3709 3517 3762 4090 4166 4052 3807 3980 3555 3352 3063 2857 2737 2687 2556 2540 2524 2418 2307 2277 2385 2290 2266 2036 1700 1461 1273 1257 1036 958 641 720 874 908 771 759 585 404 447 294 486 1056 876 1199 804 313 18 0 0 0
1212 1421 1252 1208 1608 2076 2704 2717 3151 3014 2670 2320 2884 3518 3626 3793 4559 4267 4156 3841 3277 3065 2759 2501 2405 2537 2337 2255 2305 2260 2110 2175 2177 2158 2307 2168 2012 1698 1503 1643 1360 910 368 254 45 644 578 832 514 424 123 50 141 324 727 514 883 1088 470 179 17 28 1
1204 1206 1513 1457 1585 1916 1866 1822 1844 2036 2579 2902 3466 3930 4120 4337 4072 3783 3426 3095 2790 2762 2720 2692 2527 2516 2392 2303 2204 2095 1891 1997 1883 1856 1986 1960 1672 1348 1248 1081 800 707 460 316 35 0 323 661 146 192 610 580 1 536 205 757 771 742 534 202 381 0 0
1211 1222 1350 1573 2443 2600 2456 3006 3232 3560 3603 3580 3641 3622 3575 3576 3420 3548 3179 3245 2881 2661 2872 2842 2662 2363 2091 2148 1976 1863 1689 1557 1527 1646 1500 1481 1526 1335 1229 997 825 594 432 238 0 335 0 0 0 0 0 808 273 0 0 365 342 95 528 545 569 529 317
956 1366 1600 1745 2072 2574 2822 2816 2951 3072 3349 3410 3469 3359 3150 2447 2575 3200 3033 3042 2772 2736 2938 2852 2645 2387 2100 2050 1869 1685 1610 1466 1506 1536 1668 1185 1116 1114 1032 868 609 555 417 344 181 0 0 0 0 0 0 0 0 0 0 0 151 540 527 665 704 356 0
Wind_Speed
16 19 24 23 20 22 22 23 26 24 22 22 23 18 15 14 15 18 19 21 22 21 21 21 21 22 22 21 22 23 23 24 24 24 25 26 26 28 28 26 25 24 24 24 24 25 23 24 30 29 32 37 38 37 36 36 31 30 29 30 30 29 32
21 20 23 22 20 20 20 20 22 23 19 17 19 18 15 15 15 18 19 22 23 23 24 23 23 22 23 24 23 24 24 25 25 25 26 26 26 27 26 25 23 22 24 24 23 23 23 23 27 29 36 40 40 40 41 38 33 27 26 28 31 33 32
25 22 21 20 18 16 15 16 19 18 18 14 17 18 17 14 15 16 19 22 24 24 24 24 24 24 25 25 25 24 25 25 25 27 27 26 27 26 24 23 21 21 23 23 24 24 25 27 27 31 35 37 37 37 38 37 30 26 26 33 35 38 36
25 25 21 16 14 13 13 15 18 17 17 15 13 15 14 12 13 15 18 22 25 24 25 24 24 24 25 25 24 24 24 24 25 26 26 26 26 24 20 19 19 21 22 22 22 25 27 27 31 32 35 34 33 34 33 33 31 28 30 34 38 39 37
35 32 24 15 12 14 14 16 18 15 12 13 10 11 13 14 15 17 19 22 25 26 25 25 24 22 22 23 22 22 23 24 25 25 25 25 23 20 19 20 21 22 19 19 22 28 29 27 29 29 31 31 32 32 32 31 32 32 34 35 35 36 35
42 43 28 15 16 17 16 16 17 12 9 11 13 13 15 19 19 24 25 24 24 26 25 24 24 23 21 21 20 21 23 24 24 24 23 21 20 18 20 21 23 23 21 20 23 29 29 26 25 27 29 30 32 32 34 34 33 36 36 36 35 34 33
39 44 30 23 25 28 22 19 18 9 1 2 6 9 13 17 21 23 24 27 29 28 29 27 25 24 21 20 19 21 23 24 23 23 19 17 17 17 20 21 24 24 21 21 23 26 27 26 25 27 28 30 30 32 32 34 35 34 35 36 37 36 36
28 38 40 29 27 30 24 20 19 15 11 8 4 9 15 17 19 23 25 27 29 29 29 28 25 23 23 20 20 22 24 23 21 19 16 15 16 18 21 23 24 23 22 24 24 25 27 26 25 26 28 29 30 30 31 32 34 36 34 37 38 39 38
22 35 37 29 27 30 29 23 21 19 17 16 8 5 11 13 17 21 24 27 29 30 30 28 25 22 22 21 21 21 22 21 20 19 17 18 17 22 24 23 24 23 24 23 23 24 26 26 25 26 28 29 30 30 30 31 33 35 36 36 38 38 38
27 29 32 32 32 36 34 28 26 24 22 23 17 8 10 13 14 19 23 25 28 30 31 27 23 21 22 22 22 22 19 18 18 22 22 22 21 25 27 26 24 24 22 22 21 24 24 26 27 28 30 30 31 32 32 33 35 37 38 38 38 38 38
29 27 31 34 35 38 36 32 29 23 22 25 23 13 8 11 14 19 22 24 27 28 29 25 20 20 21 23 24 22 17 18 19 21 22 23 23 28 29 28 27 24 23 23 24 24 25 26 28 29 31 33 34 35 35 35 37 40 41 40 39 39 38
30 31 32 35 37 41 33 27 23 21 22 25 23 16 10 11 16 19 20 24 27 28 28 25 19 19 20 21 21 17 17 19 21 23 24 25 23 27 28 27 26 26 25 26 27 27 27 30 29 29 33 36 38 38 37 37 39 43 44 45 44 44 43
33 35 36 39 41 38 31 28 25 24 26 26 23 17 11 13 17 18 18 23 26 27 27 24 19 18 19 20 18 14 16 20 21 20 22 22 20 20 22 25 27 29 29 30 31 32 30 33 34 33 36 38 40 42 42 41 43 45 47 47 48 49 48
35 38 38 40 37 34 31 29 27 29 30 30 27 20 13 13 16 16 18 22 24 28 27 23 19 17 18 16 14 13 16 18 17 19 20 19 18 19 21 24 26 29 31 33 34 34 36 39 40 39 39 40 43 45 45 45 46 48 50 49 49 51 52
36 34 35 38 38 33 32 30 29 30 31 33 31 23 16 13 14 16 18 20 22 26 28 24 19 17 17 16 12 12 14 15 15 16 16 17 18 21 25 28 30 30 32 34 35 35 39 40 42 43 41 41 45 49 49 50 50 51 53 53 52 52 54
nan 24 32 42 40 36 35 33 30 30 33 34 30 24 18 16 15 15 17 20 22 22 28 25 19 17 17 16 13 12 13 13 13 13 15 18 22 24 27 29 31 33 33 34 36 37 40 43 45 46 44 45 49 51 52 53 52 56 62 60 55 56 56
nan nan nan 41 35 31 34 33 33 35 36 33 25 20 19 18 16 15 16 19 21 22 27 27 21 19 17 15 14 13 12 11 11 12 14 18 23 25 28 30 32 34 36 36 35 37 41 44 46 47 47 50 54 55 54 54 54 nan nan nan nan 58 58
nan 32 35 37 26 26 32 31 32 34 34 31 24 19 19 19 19 18 15 18 20 24 26 28 24 20 18 17 15 13 13 12 13 15 16 19 24 27 28 30 33 36 37 37 38 39 41 45 48 50 49 50 54 57 56 55 57 63 nan nan nan 60 59
nan nan 37 35 28 30 30 28 31 34 31 30 26 22 20 21 22 19 16 17 20 24 25 29 26 22 19 18 16 15 15 17 18 18 20 22 25 26 27 31 34 37 40 40 39 40 42 44 47 49 50 53 55 56 57 55 60 65 nan nan nan nan 59
26 22 26 35 34 32 32 30 30 32 32 30 27 22 21 23 22 19 17 18 21 23 24 28 26 23 22 20 18 18 19 21 20 21 23 26 28 30 33 35 37 37 39 39 40 41 42 45 48 49 51 53 54 55 55 55 62 68 nan nan nan nan 57
29 23 28 36 41 40 41 36 31 31 31 28 26 26 26 27 25 23 20 20 21 22 24 26 28 24 23 22 21 21 24 25 26 27 29 31 33 35 35 37 38 39 40 40 42 42 44 47 48 49 52 54 54 53 55 54 66 nan nan nan nan nan nan
27 25 26 31 37 41 43 35 29 27 28 27 31 32 30 28 25 22 20 21 21 22 24 26 29 28 25 24 23 25 27 29 31 31 33 35 37 38 38 40 41 42 43 43 43 43 45 47 48 51 54 54 52 51 54 57 67 nan nan nan nan nan 45
nan nan nan 35 37 42 41 36 30 27 30 29 31 33 32 29 27 24 23 22 22 24 26 28 30 30 30 28 28 29 30 32 34 36 37 39 40 40 41 42 43 43 45 45 44 45 47 48 50 52 55 54 52 52 56 59 62 64 nan nan nan nan 38
nan nan nan nan 38 43 44 39 34 33 32 31 31 31 33 33 31 28 25 23 25 27 28 31 34 33 33 33 32 32 34 35 37 39 40 41 42 42 42 43 43 44 46 45 43 43 46 49 49 53 53 54 53 55 57 57 57 59 55 nan nan nan 37
nan nan nan nan 46 48 48 42 33 32 35 35 31 33 37 37 34 30 26 26 28 30 29 34 36 36 37 37 35 35 37 39 41 42 43 44 44 44 44 44 44 46 49 47 44 43 45 48 50 51 51 52 53 55 57 53 52 50 47 nan nan nan 36
50 nan nan 44 nan nan 59 57 47 39 38 35 36 37 39 39 39 35 30 29 31 31 30 35 38 40 40 39 37 37 40 41 43 44 45 47 47 47 48 49 49 51 54 52 49 47 45 47 50 51 50 50 53 53 53 50 47 44 46 46 nan nan 39
52 51 55 nan 52 52 67 64 49 40 36 34 36 40 42 43 44 42 36 35 33 30 31 39 43 43 42 39 38 41 44 44 46 48 48 48 49 49 51 51 51 54 55 53 53 54 52 48 47 49 49 50 51 52 51 50 49 47 48 47 nan nan 40
54 60 57 54 56 59 69 63 49 41 37 38 38 42 46 47 48 46 42 38 35 34 37 44 45 41 41 41 41 44 46 47 48 49 49 51 52 51 52 51 50 51 51 49 52 55 52 47 43 44 47 48 53 51 52 49 53 49 49 49 nan nan nan
57 55 55 49 48 55 63 59 49 41 40 39 38 43 48 50 53 51 45 40 39 40 44 46 45 43 43 44 46 47 48 48 50 51 51 53 55 56 56 51 49 49 49 46 50 51 49 43 42 45 47 51 53 52 50 48 52 55 nan nan nan nan nan
55 63 59 47 44 48 46 51 48 44 42 42 44 47 49 52 53 50 45 42 44 47 47 46 44 44 46 48 49 49 49 51 54 54 55 56 58 58 56 52 51 50 47 44 48 49 46 44 45 46 51 53 52 51 49 48 47 51 nan nan nan nan nan
55 62 65 61 51 43 40 49 47 44 45 47 49 54 56 55 53 54 51 48 49 47 46 46 46 46 48 50 50 49 52 55 56 56 56 56 57 58 56 53 51 50 47 47 48 49 47 47 46 46 50 52 51 50 50 49 49 47 nan nan nan nan nan
51 57 66 62 52 43 41 43 40 41 54 60 61 60 58 57 57 57 54 51 49 47 46 47 48 49 51 52 52 53 55 57 58 58 58 57 56 56 54 52 51 50 49 50 52 52 51 50 50 51 49 49 50 49 49 50 49 48 nan nan nan nan nan
53 59 62 58 54 57 58 57 56 57 56 58 61 60 60 62 61 59 55 53 49 48 48 49 51 53 53 55 56 57 57 58 57 59 60 56 51 52 53 51 48 49 49 52 54 54 54 52 53 54 51 48 48 47 49 51 50 49 47 nan nan nan nan
57 55 53 47 45 58 60 58 58 59 58 58 62 61 62 61 60 57 56 54 51 50 50 50 51 53 54 56 56 55 56 56 60 63 61 54 48 49 52 49 44 47 49 52 55 56 55 54 55 55 52 49 47 46 50 50 49 49 48 nan nan nan nan
55 53 51 45 38 39 43 43 46 47 50 52 52 54 51 52 54 56 57 57 56 54 54 54 54 53 55 55 54 54 54 56 57 61 59 51 45 46 46 44 42 50 53 51 nan 53 56 56 55 52 50 nan 47 47 51 50 50 48 50 50 nan nan nan
46 50 47 43 42 44 51 51 48 50 52 45 48 53 55 56 56 56 58 59 58 57 57 55 54 55 55 53 52 54 56 55 54 58 56 50 46 49 52 54 55 53 57 56 nan nan 58 59 53 48 45 48 nan 44 47 50 50 58 59 57 56 nan nan
40 40 40 42 41 44 48 44 39 37 39 37 40 48 52 53 54 55 56 57 57 58 57 55 53 53 55 53 52 54 55 55 53 54 55 52 50 52 57 58 60 63 62 62 nan 58 nan nan nan nan nan 45 49 nan nan 55 62 nan 59 60 59 58 56
35 38 38 39 43 47 52 52 47 43 41 39 39 44 48 52 54 53 54 54 56 56 55 55 54 54 54 54 55 57 56 52 51 52 55 56 56 57 61 62 62 59 60 62 63 nan nan nan nan nan nan nan nan nan nan nan 56 60 61 61 59 57 nan
Wind_Direction
283 286 279 270 273 281 287 291 295 291 294 299 301 307 326 329 328 314 309 306 306 300 298 296 294 288 291 286 284 284 284 285 286 288 289 288 289 292 298 307 314 321 325 327 331 341 347 353 347 349 346 342 339 335 328 320 312 305 307 312 312 315 316
279 283 284 286 286 286 284 285 285 279 294 307 303 310 323 339 332 323 313 308 307 304 299 295 293 288 287 283 279 283 286 287 288 286 287 286 289 294 304 313 323 330 330 336 336 339 342 350 346 347 344 341 338 336 334 331 318 306 310 318 322 320 318
284 284 279 283 291 281 275 271 272 287 309 315 310 318 336 343 339 330 318 313 311 306 300 299 295 289 284 281 281 283 286 287 288 290 292 292 299 307 312 322 334 338 335 335 343 343 346 347 349 347 347 346 344 339 340 341 336 323 322 326 327 324 322
293 293 284 289 299 294 283 272 273 293 313 328 329 338 341 346 343 338 331 324 317 312 309 302 295 290 284 283 283 283 288 289 289 290 295 298 306 314 327 336 345 345 341 347 355 356 353 350 350 353 356 356 354 349 350 354 351 344 338 335 331 329 326
305 303 292 288 296 288 279 279 279 290 335 3 356 340 342 344 345 346 339 335 330 322 315 308 301 295 285 285 280 282 287 288 287 290 297 304 317 331 349 350 349 349 345 345 351 353 352 348 348 353 357 357 359 359 359 360 357 353 349 346 340 338 338
298 305 299 292 293 290 288 294 303 323 16 23 4 337 340 349 353 356 348 339 335 327 316 310 305 297 294 293 286 283 282 285 288 296 306 319 335 349 356 351 348 347 344 341 339 344 348 351 349 351 350 353 359 0 360 359 357 355 354 350 347 344 344
290 295 296 300 305 302 292 281 287 295 307 15 337 318 335 345 349 348 345 342 340 332 327 323 313 303 296 293 287 285 289 293 299 311 323 341 349 353 356 350 351 354 351 344 347 349 354 358 357 349 346 350 354 357 357 355 355 354 351 350 347 343 341
265 273 281 296 306 303 299 288 281 278 266 253 282 338 343 337 334 338 340 336 335 334 332 328 319 305 301 297 292 294 298 307 313 327 341 355 352 351 354 354 353 356 354 358 356 0 3 1 358 348 346 348 350 350 351 352 352 350 347 347 345 343 339
245 267 285 300 303 300 299 284 275 279 278 277 287 313 337 327 330 330 331 330 330 333 334 331 329 317 303 301 299 299 305 318 332 346 354 358 349 355 355 356 357 357 1 6 3 3 2 359 356 350 347 346 346 346 347 347 348 347 346 345 343 340 337
228 266 274 286 289 290 286 272 264 270 277 279 282 285 329 333 325 326 327 328 327 333 334 333 333 327 312 305 305 306 315 335 349 360 1 0 355 360 2 0 0 3 6 6 1 358 357 354 354 351 348 346 343 343 345 345 344 346 347 346 344 340 335
229 243 259 269 272 272 272 268 266 278 287 279 281 282 295 318 323 328 325 325 324 326 331 332 328 329 322 317 318 320 325 346 357 359 360 3 4 6 7 3 1 1 359 353 355 352 350 349 350 350 349 348 345 343 344 344 344 345 345 344 344 343 338
249 250 254 256 256 259 265 263 269 275 271 264 269 279 289 308 314 323 317 320 317 320 326 329 325 326 319 316 321 325 339 349 359 360 358 4 8 6 5 6 2 359 357 359 358 352 348 347 347 348 348 346 344 343 344 344 343 343 342 342 342 342 342
246 245 250 253 254 258 259 249 258 264 264 268 274 281 290 307 310 312 305 310 313 313 320 323 318 310 314 321 335 339 348 352 356 350 350 358 3 2 5 9 8 5 2 2 0 355 346 342 344 344 344 343 341 343 345 344 343 341 340 339 338 340 341
241 245 244 252 255 265 265 256 255 260 261 264 271 285 296 306 302 299 294 301 302 308 318 318 313 309 309 322 338 341 345 350 348 343 347 354 359 4 7 5 4 2 358 357 358 353 342 339 344 343 341 340 340 342 343 342 340 339 338 337 336 337 337
255 258 263 269 268 270 271 268 263 256 252 257 268 281 290 289 291 283 280 290 297 307 315 313 309 307 314 323 333 334 339 342 341 340 344 351 356 358 360 359 357 354 353 352 352 346 340 333 336 335 336 338 337 338 340 341 340 338 336 334 334 334 334
nan 250 256 259 258 261 266 274 270 258 253 257 269 280 286 281 279 287 288 292 299 301 304 304 310 308 315 325 327 325 332 339 339 339 341 347 351 351 350 351 353 351 351 350 349 342 335 334 333 327 329 335 335 333 334 335 336 336 336 333 331 331 330
nan nan nan 246 255 256 255 260 260 254 259 268 278 282 279 277 282 283 303 300 306 302 298 299 305 310 315 322 319 318 323 327 331 330 337 340 340 340 343 346 346 345 346 344 344 339 331 330 330 322 329 335 335 333 332 331 331 nan nan nan nan 328 327
nan 224 245 255 256 250 249 255 254 252 258 266 269 273 269 267 267 272 294 294 300 310 301 294 301 308 314 313 312 311 317 314 313 315 321 327 334 337 339 340 340 339 338 336 333 329 326 328 326 328 332 333 334 334 332 331 330 330 nan nan nan 327 323
nan nan 248 260 252 250 255 256 251 250 260 265 266 263 269 270 267 272 283 290 293 295 298 289 297 305 308 308 311 312 311 308 309 309 315 325 329 332 332 333 333 331 329 323 320 320 324 323 326 331 330 330 331 331 330 329 327 328 nan nan nan nan 321
239 230 245 257 261 258 254 246 245 252 261 261 263 270 270 271 274 272 279 282 278 286 293 286 294 301 311 313 318 320 317 317 314 314 320 323 323 322 323 325 329 329 325 324 321 321 321 323 326 328 327 324 323 323 324 326 322 326 nan nan nan nan 322
244 242 239 244 253 261 259 255 252 257 264 271 272 263 258 261 266 265 270 271 277 286 293 289 286 295 305 310 313 309 310 310 312 317 316 316 316 314 314 320 323 322 319 319 318 321 322 320 322 320 317 317 317 319 321 321 321 nan nan nan nan nan nan
231 236 242 241 247 251 257 259 258 262 263 264 263 265 266 268 274 280 283 286 283 286 292 289 278 287 298 303 298 296 301 301 304 304 307 307 307 309 313 315 318 316 314 313 312 312 315 316 316 315 314 315 318 320 319 314 320 nan nan nan nan nan 315
nan nan nan 237 242 253 252 257 256 255 250 251 258 265 270 270 272 274 278 283 283 281 286 285 280 288 294 289 291 295 299 301 304 305 301 301 305 308 308 309 310 309 308 310 309 309 312 312 312 309 311 316 320 319 317 314 322 320 nan nan nan nan 315
nan nan nan nan 241 255 256 251 247 249 254 255 253 261 263 267 267 265 268 275 274 278 281 279 273 281 287 287 292 294 294 295 301 302 301 301 302 302 302 304 302 302 300 302 303 306 306 307 308 308 312 317 320 319 319 318 322 324 323 nan nan nan 320
nan nan nan nan 235 251 257 249 241 247 255 255 257 255 257 261 266 265 264 269 270 273 280 277 276 282 285 285 287 290 290 289 290 293 296 296 296 297 299 301 299 297 294 297 297 298 298 302 303 303 308 317 316 317 320 321 321 325 323 nan nan nan 320
235 nan nan 239 nan nan 249 249 241 246 256 252 249 253 255 261 265 267 264 264 267 274 279 276 277 278 280 281 284 287 286 286 287 288 291 292 295 297 297 296 297 299 297 298 299 296 294 296 297 300 305 311 314 318 322 318 312 319 323 323 nan nan 320
216 231 242 nan 230 232 249 251 247 248 252 242 240 246 251 257 265 267 262 260 263 271 273 268 268 272 275 279 283 282 282 283 286 288 290 292 295 298 296 294 295 298 300 302 303 300 299 299 301 303 309 311 315 316 317 313 312 315 320 322 nan nan 320
222 216 222 232 227 229 245 250 247 243 243 236 236 241 249 255 260 261 259 259 262 262 261 260 267 270 275 277 279 279 279 281 283 286 287 289 290 290 288 287 291 296 301 304 301 302 302 299 302 307 307 309 309 311 312 314 313 313 320 323 nan nan nan
235 231 230 223 226 234 243 243 243 240 239 241 241 242 246 251 254 256 256 256 256 256 257 262 266 272 274 274 274 274 277 279 281 282 285 288 288 284 283 289 296 297 299 302 304 303 301 303 304 304 306 303 306 307 311 311 309 315 nan nan nan nan nan
232 232 234 229 224 230 238 238 234 231 231 236 235 236 239 242 248 252 254 254 252 256 259 262 266 268 270 271 273 278 282 283 285 285 287 290 289 289 291 293 292 292 297 295 298 299 301 303 306 306 305 303 303 306 304 304 304 312 nan nan nan nan nan
224 224 225 226 227 237 232 227 224 221 227 229 229 231 235 239 244 249 250 250 253 256 258 261 265 268 270 274 277 279 279 280 282 284 284 283 284 288 291 294 294 293 295 298 296 296 299 301 303 304 300 300 302 303 304 304 305 303 nan nan nan nan nan
226 225 230 229 231 227 223 222 215 222 226 227 231 233 234 235 240 246 249 252 253 255 258 261 263 265 268 269 268 270 274 276 276 276 275 275 279 286 291 293 295 296 299 298 297 298 302 304 304 305 303 301 303 306 307 307 306 306 nan nan nan nan nan
233 228 230 230 224 226 226 217 214 217 224 230 231 231 230 234 236 241 246 250 253 256 259 261 263 264 265 266 267 268 271 274 275 274 271 270 277 285 288 289 292 295 296 296 297 300 302 304 305 304 303 302 304 308 309 309 309 310 311 nan nan nan nan
240 241 245 245 235 231 223 219 222 220 218 221 225 223 225 227 235 240 245 251 256 257 258 261 263 265 267 270 270 272 275 275 278 278 275 275 281 286 287 286 290 293 295 296 298 300 302 304 304 303 302 305 307 309 308 310 311 313 314 nan nan nan nan
245 245 245 241 224 219 222 225 225 227 231 231 228 228 232 238 239 242 244 246 251 254 257 260 262 265 268 270 272 273 271 272 276 278 279 280 278 274 276 285 295 293 285 282 nan 296 303 304 302 303 304 nan 311 312 309 311 313 315 314 315 nan nan nan
237 230 225 228 226 221 221 219 222 222 225 224 227 226 230 236 240 243 245 247 251 255 257 260 265 269 270 271 273 274 273 274 278 280 283 280 281 281 282 279 276 277 287 291 nan nan 285 289 295 293 293 296 nan 299 307 311 311 311 316 317 319 nan nan
222 223 217 228 236 230 229 236 246 247 242 233 224 225 230 236 241 244 246 248 252 256 258 261 263 266 268 270 272 271 273 277 278 280 281 283 282 282 285 284 277 272 275 284 nan 286 nan nan nan nan nan 297 301 nan nan 301 306 nan 314 312 311 309 308
221 221 224 226 227 227 231 235 239 241 239 237 233 230 232 238 240 242 248 251 252 254 256 259 262 264 269 271 271 272 272 275 276 278 278 276 277 280 282 281 281 280 277 281 284 nan nan nan nan nan nan nan nan nan nan nan 300 305 306 306 306 306 nan